Погода в Волгограде

Россия / Волгоградская область     48°42′25″N   44°31′00″E
темп.,
°C
ветер,
м/с
пор.,
м/с
влажн.,
%
обл.,
%
осадки,
мм/ч
давл.,
гПа
погр.,
м
11 мая, вт
вт1100:00+7юв6887100 0.3 1013558
03:00+7юв71088100 0.9 1013848
06:00+7юв81287100 1.1 10151128
09:00+7юв81387100 2.1 10181070
12:00+9ююв91582100 0.6 10201413
15:00+14вюв61155100 0.9 10201456
18:00+14в61055100 0.3 1021777
21:00+12в51260100 0.3 1022465
12 мая, ср
ср1200:00+11всв51262100 0.0 1021380
03:00+10св5136886 0.0 1020397
06:00+10св4870100 0.0 1020247
09:00+15в355882 0.0 1020472
12:00+18вюв23444 0.0 10191238
15:00+20в34412 0.0 10181389
18:00+20в354619 0.0 10181015
21:00+17с345852 0.0 101779
13 мая, чт
чт1300:00+16ссв4872100 0.0 1016216
03:00+15ссв478189 0.0 1015210
06:00+15св22846 0.0 1015103
09:00+19в33671 0.0 1016470
12:00+22юв34560 0.0 10161029
15:00+24юв44480 0.0 10161281
18:00+24юв34490 0.0 1016803
21:00+21всв22554 0.0 101612
14 мая, пт
пт1400:00+19всв35615 0.0 101685
03:00+17в34725 0.0 101676
06:00+17вюв37728 0.0 1017178
09:00+21юв5852100 0.0 1017415
12:00+26юв693899 0.0 1016889
15:00+29юв7112734 0.0 10151700
18:00+27юв611353 0.0 10151108
21:00+22юв614394 0.0 1016625
15 мая, сб
сб1500:00+19юв513380 0.0 1016475
03:00+17вюв411421 0.0 1016288
06:00+17вюв410461 0.0 1016229
09:00+22юв59373 0.0 1016385
12:00+28ююв711265 0.0 10151680
15:00+29ююв710227 0.0 10142332
18:00+27юв593149 0.0 10131068
21:00+23ююв6134098 0.0 1014467